Location: *
(43.4667°N, 11.6833°E)
Time: 19:39:34
(UTC+00:00)

Cosmos 2251 Rocket - Pass Details

Date: 19 July 2019
Orbit: 765 x 792 km, 74.0° (Epoch: 16 August)

Event Time Altitude Azimuth Distance (km) Brightness Sun altitude
Rises 19:15:28 0° 192° (SSW) 3,225 6.5 -4.8°
Reaches altitude 10° 19:17:51 10° 191° (S) 2,300 5.7 -5.2°
Maximum altitude 19:23:02 72° 107° (ESE) 806 3.5 -6.0°
Drops below altitude 10° 19:28:15 10° 24° (NNE) 2,311 6.2 -6.7°
Sets 19:30:38 0° 23° (NNE) 3,241 6.9 -7.1°
